Weather History for St. Paul Lake Elmo, MN

Change the Weather History Date:

Tuesday, December 24, 2013

  Actual Average (KSTP) Record (KSTP)
Temperature  
Mean Temperature 0 °F -  
Max Temperature 12 °F 23 °F 42 °F (2006)
Min Temperature -13 °F 9 °F -11 °F (2000)
Degree Days  
Heating Degree Days 66    
Moisture  
Dew Point -7 °F    
Average Humidity 74    
Maximum Humidity 85    
Minimum Humidity 57    
Precipitation  
Precipitation 0.00 in - - ()
Sea Level Pressure  
Sea Level Pressure 30.35 in    
Wind  
Wind Speed 4 mph (SSE)    
Max Wind Speed 15 mph    
Max Gust Speed 22 mph    
Visibility 9 miles    
Events Snow    
Averages and records for this station are not official NWS values.
T = Trace of Precipitation, MM = Missing Value Source: NWS Daily Summary

Daily Weather History Graph

Daily Weather History Graph

Search for Another Location

Airport:

Trip Planner

Search our weather history database for the weather conditions in past years. The results will help you decide how hot, cold, wet, or windy it might be!

Date:

Astronomy

Dec. 24, 2013 Rise Set
Actual Time 7:48 AM CST 4:34 PM CST
Civil Twilight 7:14 AM CST 5:08 PM CST
Nautical Twilight 6:36 AM CST 5:45 PM CST
Astronomical Twilight 6:01 AM CST 6:21 PM CST
Moon No Moon Rise 11:25 AM CST (12/24)
Length of Visible Light 9h 54m
Length of Day
8h 46m
Waning Gibbous, 58% of the Moon is Illuminated
Dec 24
Waning Gibbous
Dec 25
Last Quarter
Jan 1
New
Jan 7
First Quarter
Jan 15
Full

Hourly Weather History & Observations

Time (CST) Temp. Windchill Dew Point Humidity Pressure Visibility Wind Dir Wind Speed Gust Speed Precip Events Conditions
12:11 AM -2.2 °F -10.4 °F -7.6 °F 78% 30.47 in 10.0 mi West 3.5 mph - N/A Snow Light Snow
12:32 AM -4.0 °F - -7.6 °F 85% 30.47 in 10.0 mi Calm Calm - N/A Snow Light Snow
12:52 AM -4.0 °F - -7.6 °F 85% 30.45 in 10.0 mi Calm Calm - N/A Snow Light Snow
1:11 AM -7.6 °F - -11.2 °F 84% 30.44 in 10.0 mi Calm Calm - N/A   Clear
1:32 AM -7.6 °F -18.8 °F -11.2 °F 84% 30.46 in 10.0 mi West 4.6 mph - N/A   Clear
1:52 AM -5.8 °F - -9.4 °F 84% 30.47 in 10.0 mi Calm Calm - N/A   Scattered Clouds
2:12 AM -7.6 °F - -13.0 °F 77% 30.46 in 10.0 mi Calm Calm - N/A   Mostly Cloudy
2:32 AM -9.4 °F - -13.0 °F 84% 30.47 in 10.0 mi Calm Calm - N/A   Mostly Cloudy
2:51 AM -9.4 °F - -13.0 °F 84% 30.46 in 10.0 mi Calm Calm - N/A   Overcast
3:12 AM -9.4 °F - -13.0 °F 84% 30.45 in 10.0 mi Calm Calm - N/A Snow Light Snow
3:31 AM -9.4 °F - -13.0 °F 84% 30.45 in 7.0 mi Calm Calm - N/A   Mostly Cloudy
3:51 AM -9.4 °F -18.6 °F -13.0 °F 84% 30.45 in 7.0 mi SSW 3.5 mph - N/A   Scattered Clouds
4:12 AM -7.6 °F - -13.0 °F 77% 30.42 in 10.0 mi Calm Calm - N/A   Clear
4:31 AM -9.4 °F - -13.0 °F 84% 30.43 in 10.0 mi Calm Calm - N/A   Clear
4:52 AM -9.4 °F -20.9 °F -14.8 °F 77% 30.42 in 10.0 mi South 4.6 mph - N/A   Scattered Clouds
5:12 AM -11.2 °F -20.6 °F -14.8 °F 84% 30.41 in 10.0 mi ESE 3.5 mph - N/A   Clear
5:31 AM -9.4 °F -18.6 °F -14.8 °F 77% 30.41 in 10.0 mi SSE 3.5 mph - N/A   Clear
5:52 AM -11.2 °F - -14.8 °F 84% 30.41 in 7.0 mi Calm Calm - N/A   Clear
6:12 AM -11.2 °F -23.0 °F -14.8 °F 84% 30.42 in 7.0 mi South 4.6 mph - N/A Snow Light Snow
6:31 AM -11.2 °F -23.0 °F -16.6 °F 77% 30.43 in 10.0 mi South 4.6 mph - N/A   Scattered Clouds
6:52 AM -11.2 °F -20.6 °F -16.6 °F 77% 30.43 in 10.0 mi SSE 3.5 mph - N/A   Scattered Clouds
7:12 AM -13.0 °F - -16.6 °F 84% 30.42 in 10.0 mi Calm Calm - N/A   Clear
7:31 AM -13.0 °F - -16.6 °F 84% 30.42 in 10.0 mi Calm Calm - N/A   Clear
7:52 AM -11.2 °F -23.0 °F -16.6 °F 77% 30.41 in 10.0 mi SSE 4.6 mph - N/A   Clear
8:11 AM -9.4 °F -20.9 °F -14.8 °F 77% 30.42 in 10.0 mi South 4.6 mph - N/A   Clear
8:32 AM -11.2 °F -20.6 °F -14.8 °F 84% 30.41 in 10.0 mi South 3.5 mph - N/A   Clear
8:52 AM -9.4 °F -18.6 °F -13.0 °F 84% 30.39 in 10.0 mi SSE 3.5 mph - N/A   Clear
9:11 AM -7.6 °F -22.1 °F -13.0 °F 77% 30.39 in 10.0 mi SSE 6.9 mph - N/A   Clear
9:32 AM -5.8 °F -19.9 °F -11.2 °F 77% 30.38 in 10.0 mi SE 6.9 mph - N/A   Clear
9:52 AM -4.0 °F -16.3 °F -9.4 °F 78% 30.38 in 10.0 mi SSE 5.8 mph - N/A   Clear
10:11 AM -2.2 °F -12.5 °F -9.4 °F 71% 30.38 in 10.0 mi SE 4.6 mph - N/A   Clear
10:32 AM -0.4 °F -8.3 °F -7.6 °F 72% 30.38 in 10.0 mi SSE 3.5 mph - N/A   Clear
10:51 AM 1.4 °F -11.3 °F -5.8 °F 72% 30.36 in 10.0 mi SE 6.9 mph - N/A   Clear
11:12 AM 1.4 °F -8.3 °F -5.8 °F 72% 30.35 in 10.0 mi SE 4.6 mph - N/A   Clear
11:32 AM 3.2 °F -11.3 °F -5.8 °F 66% 30.35 in 10.0 mi SSE 9.2 mph - N/A   Clear
11:51 AM 3.2 °F -9.1 °F -4.0 °F 72% 30.33 in 10.0 mi SSE 6.9 mph - N/A   Clear
12:12 PM 5.0 °F -4.1 °F -4.0 °F 66% 30.33 in 10.0 mi South 4.6 mph - N/A   Clear
12:31 PM 6.8 °F -3.5 °F -2.2 °F 67% 30.31 in 10.0 mi South 5.8 mph - N/A   Clear
12:52 PM 8.6 °F -5.5 °F -4.0 °F 57% 30.29 in 10.0 mi SSE 10.4 mph - N/A   Mostly Cloudy
1:12 PM 8.6 °F -5.5 °F -4.0 °F 57% 30.29 in 10.0 mi South 10.4 mph - N/A   Mostly Cloudy
1:31 PM 8.6 °F -7.0 °F -4.0 °F 57% 30.28 in 10.0 mi South 12.7 mph - N/A   Mostly Cloudy
1:52 PM 8.6 °F -6.3 °F -2.2 °F 62% 30.28 in 10.0 mi South 11.5 mph - N/A   Overcast
2:12 PM 8.6 °F -5.5 °F -2.2 °F 62% 30.27 in 10.0 mi SSE 10.4 mph - N/A   Overcast
2:31 PM 10.4 °F -2.4 °F -0.4 °F 62% 30.26 in 10.0 mi SSE 9.2 mph 18.4 mph N/A   Overcast
2:52 PM 10.4 °F -4.8 °F -0.4 °F 62% 30.24 in 10.0 mi SSE 12.7 mph - N/A   Overcast
3:12 PM 10.4 °F -4.1 °F -0.4 °F 62% 30.24 in 10.0 mi SSE 11.5 mph - N/A   Overcast
3:31 PM 10.4 °F -3.3 °F -0.4 °F 62% 30.24 in 10.0 mi SE 10.4 mph - N/A   Overcast
3:52 PM 10.4 °F -3.3 °F -0.4 °F 62% 30.24 in 10.0 mi SE 10.4 mph - N/A   Overcast
4:12 PM 10.4 °F -3.3 °F -0.4 °F 62% 30.23 in 10.0 mi SE 10.4 mph - N/A   Overcast
4:31 PM 10.4 °F -4.8 °F -0.4 °F 62% 30.22 in 10.0 mi SSE 12.7 mph - N/A   Overcast
4:52 PM 10.4 °F -3.3 °F -0.4 °F 62% 30.22 in 10.0 mi SSE 10.4 mph 13.8 mph N/A   Overcast
5:12 PM 10.4 °F -6.0 °F 1.4 °F 67% 30.22 in 10.0 mi SSE 15.0 mph 21.9 mph N/A   Overcast
5:31 PM 12.2 °F -1.0 °F 1.4 °F 62% 30.22 in 10.0 mi SSE 10.4 mph 16.1 mph N/A   Overcast
5:52 PM 10.4 °F -6.0 °F 3.2 °F 73% 30.21 in 5.0 mi SSE 15.0 mph 18.4 mph N/A Snow Light Snow
6:12 PM 10.4 °F -3.3 °F 5.0 °F 79% 30.21 in 2.5 mi SSE 10.4 mph - N/A Snow Light Snow
6:31 PM 10.4 °F -5.4 °F 5.0 °F 79% 30.20 in 4.0 mi SSE 13.8 mph 20.7 mph N/A Snow Light Snow
6:49 PM 10.4 °F -5.4 °F 5.0 °F 79% 30.20 in 3.0 mi South 13.8 mph - N/A Snow Light Snow
10:25 PM 8.6 °F -5.5 °F 5.0 °F 85% 30.16 in 7.0 mi South 10.4 mph - N/A   Overcast